Wind_Speed
8 5 2 5 3 2 5 5 6 5 3 5 9 8 8 11 4 2 14 13 13 8 5 1 3 6 7 8 10 13 14 15 16 17 19 20 21 23 24 25 27 28 29 29 30 32 32 32 30
8 4 3 8 3 5 1 6 7 6 11 11 7 4 3 5 4 10 14 14 10 9 8 3 3 5 6 7 10 12 12 13 14 16 17 19 21 21 23 25 27 28 29 30 32 34 35 36 36
7 7 4 3 5 5 3 6 7 13 12 9 5 5 3 6 5 14 10 14 11 9 6 4 2 4 5 8 8 9 11 12 13 14 17 18 20 21 22 24 26 28 30 33 34 35 35 35 34
6 3 6 2 9 4 4 4 21 13 6 6 6 7 6 9 13 11 15 14 12 9 6 4 2 3 5 5 6 8 10 10 12 14 15 16 19 21 23 25 27 30 32 33 34 35 36 35 33
8 6 4 6 8 5 3 3 15 10 11 11 9 7 6 14 14 13 16 14 12 9 6 5 2 2 3 4 6 8 8 9 11 13 15 18 20 22 24 26 28 30 31 33 34 35 35 37 37
4 7 5 6 4 5 1 7 11 13 14 15 8 8 6 9 14 16 16 14 12 10 7 5 2 1 1 3 5 6 7 9 11 14 16 18 21 23 25 28 30 32 34 35 36 34 36 39 40
5 4 7 8 6 4 6 10 13 13 12 13 4 5 8 11 16 17 17 16 14 11 8 5 4 3 1 3 4 6 8 10 11 15 17 19 22 24 26 28 30 33 34 36 37 37 39 40 39
7 4 9 5 4 1 10 13 11 14 8 9 9 5 7 16 21 19 18 17 15 12 9 7 6 3 2 2 4 7 8 10 12 14 16 20 22 24 27 29 33 35 36 38 39 39 40 41 39
6 3 5 9 3 3 13 9 6 7 9 8 10 2 4 12 22 22 21 19 16 14 11 9 6 4 2 3 5 6 8 9 11 14 17 20 23 26 28 30 33 34 37 39 41 40 41 43 43
7 4 6 7 6 2 14 14 10 2 8 7 11 11 10 16 20 24 23 22 19 16 14 10 8 5 3 4 5 7 8 10 12 14 18 21 24 26 28 30 33 35 38 40 40 40 41 43 45
5 6 6 6 10 5 11 14 13 7 7 20 21 20 18 21 20 23 22 21 19 16 14 13 10 7 6 5 6 7 9 10 12 15 18 21 24 27 29 31 34 37 39 41 41 42 43 44 45
3 1 3 4 3 3 3 4 12 19 8 2 24 23 22 26 24 24 24 21 18 20 18 15 12 9 7 6 7 8 8 10 12 15 18 22 25 27 30 33 35 37 39 40 41 42 43 44 44
4 3 4 4 2 1 4 7 10 15 22 19 11 18 25 26 25 23 22 21 22 23 20 16 14 11 9 8 7 8 9 10 12 15 18 22 25 28 30 32 34 36 39 41 42 42 43 45 46
4 3 4 2 4 3 3 6 4 12 22 22 18 17 22 26 27 24 24 24 26 25 22 17 15 13 10 9 8 9 9 11 12 15 18 21 25 28 30 32 34 36 38 40 40 41 42 44 44
3 3 6 9 8 2 4 6 14 23 6 23 22 22 24 26 25 28 27 27 30 26 24 21 18 15 13 11 9 9 9 11 12 14 17 21 25 27 29 31 33 35 38 39 40 40 41 42 43
3 1 3 5 10 4 4 7 7 17 20 21 25 24 27 28 29 29 28 28 30 26 26 23 20 17 15 12 10 9 9 11 11 13 16 20 24 26 28 30 32 35 37 38 39 41 42 41 42
4 4 7 5 12 5 7 7 2 6 22 20 24 26 28 29 30 31 30 30 31 28 28 25 23 20 17 14 12 10 9 11 11 13 16 19 23 25 26 29 31 34 36 36 37 40 40 41 42
5 5 5 3 6 6 6 15 14 15 16 23 25 27 30 32 33 31 31 32 31 29 29 27 25 22 20 16 13 11 10 10 10 12 15 18 22 24 25 27 30 33 35 36 37 38 38 36 40
3 4 5 4 3 2 8 15 16 20 21 23 27 28 28 31 28 29 32 32 30 31 31 29 27 25 22 18 15 12 10 10 11 12 14 17 20 22 24 26 29 31 33 34 34 36 38 36 39
2 4 5 3 4 3 6 15 19 17 18 26 24 28 28 24 27 30 34 35 35 35 33 31 28 27 23 20 16 13 10 10 10 11 13 15 19 20 23 25 28 30 32 33 33 34 36 34 36
4 5 4 2 4 4 6 8 5 8 14 24 29 26 30 30 31 34 37 37 38 38 36 33 30 28 24 22 19 14 11 11 10 9 11 15 17 19 21 24 27 29 30 32 31 32 32 32 31
5 4 3 2 2 4 1 6 5 8 7 5 13 16 19 25 28 35 38 39 40 38 35 34 32 30 26 25 20 15 12 11 8 9 11 13 15 17 19 22 25 27 29 30 29 29 27 29 29
2 3 4 1 1 3 2 1 7 4 4 1 4 6 13 19 25 33 38 38 38 36 36 35 33 31 29 25 21 17 15 12 9 9 9 12 15 16 18 21 23 25 28 28 28 27 25 25 26
9 4 3 2 1 1 6 6 4 4 3 4 3 0 5 14 18 22 31 34 35 34 33 34 34 33 30 25 22 18 16 12 10 8 8 11 13 15 16 19 22 24 27 28 27 25 23 24 24
3 4 3 3 2 6 4 1 8 10 8 4 8 9 7 12 18 23 28 33 34 34 34 35 36 35 32 27 24 20 17 13 11 8 7 10 12 13 15 18 20 23 26 26 25 25 23 22 23
7 6 5 7 4 3 3 6 6 8 1 6 9 10 12 13 16 21 26 30 32 32 33 35 36 36 32 28 26 22 18 14 11 8 7 9 11 12 14 16 19 22 24 24 24 23 22 20 21
5 3 1 5 1 3 5 7 9 5 7 8 10 13 13 15 15 19 23 27 28 29 31 33 34 35 33 29 26 23 20 15 11 9 7 8 9 11 13 15 17 20 23 23 23 23 22 20 20
1 2 4 2 2 5 4 2 6 2 4 5 5 10 12 14 15 17 20 24 26 27 28 30 32 33 31 31 28 24 20 16 12 9 7 8 8 10 12 14 16 19 22 22 22 22 21 19 19
2 2 1 2 3 5 1 5 7 8 5 6 5 9 12 14 14 15 18 20 23 25 28 30 31 33 33 34 30 27 22 17 13 10 8 7 7 8 10 13 15 18 20 21 22 21 20 19 18
1 6 7 5 5 3 3 6 2 6 5 3 6 3 6 8 13 14 16 18 22 26 28 30 31 33 33 34 32 29 24 20 15 11 9 6 6 6 9 12 14 16 19 21 21 20 19 18 17
Wind_Direction
160 154 119 264 281 189 256 134 107 104 94 65 39 48 74 52 11 143 164 169 173 165 112 104 51 60 55 53 45 43 42 36 29 19 13 10 8 7 5 3 0 359 357 355 352 349 344 341 337
173 164 218 266 257 256 325 100 142 133 87 102 83 62 82 81 73 144 152 155 163 158 159 145 87 67 54 48 42 41 38 32 24 15 9 7 6 3 2 1 360 358 356 354 352 349 347 342 338
180 186 269 214 228 270 52 123 145 95 121 135 108 64 66 106 133 140 182 164 165 159 189 154 121 71 49 41 39 38 34 26 16 7 5 4 2 360 359 359 359 358 356 355 353 351 347 342 338
157 219 259 272 262 73 45 147 111 119 133 163 112 120 120 128 153 199 167 163 167 168 184 160 109 53 43 39 31 31 27 16 7 2 0 359 357 358 359 360 359 358 358 357 353 350 347 343 338
188 256 241 220 267 93 65 136 132 152 160 182 175 144 132 161 189 188 167 167 182 185 194 167 137 62 29 21 22 22 12 4 360 357 358 358 357 357 358 359 359 358 357 355 354 351 348 345 342
235 249 263 255 201 95 111 149 158 182 163 157 181 141 138 206 191 174 172 175 189 196 199 184 162 150 336 18 18 8 357 357 355 354 357 357 356 356 358 359 358 356 356 354 353 350 348 346 343
234 248 267 315 332 125 172 174 178 194 157 159 155 176 153 196 184 182 179 188 197 199 203 203 197 215 312 18 1 353 350 352 347 353 354 354 355 356 357 357 356 355 354 353 352 350 348 346 342
263 263 270 283 286 214 146 168 196 201 176 159 170 222 169 201 191 187 188 198 202 205 209 206 222 247 314 0 345 343 342 341 347 346 350 354 355 355 356 355 355 354 353 350 349 350 348 344 341
232 283 250 253 175 105 139 175 200 211 144 167 190 257 146 193 198 188 193 202 206 210 211 212 221 235 271 311 328 325 327 334 338 344 350 353 355 356 355 355 353 353 350 349 349 349 349 345 342
209 211 273 13 61 120 157 198 177 156 200 197 191 218 177 201 200 195 199 207 210 211 213 217 222 232 254 283 302 310 318 329 336 344 351 354 355 354 354 354 353 352 350 349 347 348 349 346 343
217 245 5 57 40 18 159 203 171 188 221 215 205 209 192 206 204 202 207 216 218 214 216 221 223 228 245 267 289 299 316 328 333 343 350 353 353 353 354 354 353 352 351 349 348 349 350 347 344
276 359 11 30 43 357 171 194 213 203 228 340 218 218 210 211 212 208 210 211 215 217 220 219 222 224 237 257 274 298 314 323 332 341 349 352 353 353 354 355 354 353 351 348 349 350 348 346 344
230 133 62 60 40 241 311 253 245 236 239 248 215 214 212 218 218 216 214 207 218 221 223 218 222 225 234 250 273 293 310 322 331 341 349 351 352 354 354 354 353 353 350 349 350 350 348 347 344
18 39 116 154 188 196 220 250 209 250 235 226 209 201 217 222 218 214 209 206 216 225 223 221 221 226 233 247 266 289 305 317 330 338 348 350 352 353 353 353 354 353 351 351 350 349 350 347 343
132 251 183 192 191 194 197 255 231 234 195 210 214 212 219 223 217 219 216 210 219 224 225 222 221 225 233 244 261 279 300 313 324 338 346 350 351 352 352 353 353 353 352 351 350 349 351 347 345
221 205 238 100 143 149 185 264 195 234 204 212 216 223 218 218 220 220 220 214 220 222 223 224 221 225 232 241 255 276 297 309 323 336 345 349 351 351 352 353 353 354 353 351 351 353 353 349 348
221 255 202 180 188 124 200 275 156 165 197 216 223 223 220 221 218 215 216 219 218 221 221 222 222 224 230 238 250 269 289 304 320 333 344 347 350 350 352 353 355 355 354 352 353 354 355 350 348
203 218 240 243 179 207 222 257 269 255 225 227 231 232 224 220 219 213 213 217 219 220 222 223 220 222 227 234 245 262 279 295 313 330 341 345 348 349 352 353 356 355 356 353 355 354 356 354 349
349 339 334 95 29 250 238 259 268 264 232 221 223 228 234 225 217 215 212 214 215 218 220 222 221 221 225 231 239 253 273 296 312 327 336 343 345 347 350 355 357 358 358 355 357 354 354 357 355
218 275 270 73 131 180 286 283 267 259 251 238 226 222 228 232 212 210 211 211 214 217 219 221 223 223 225 228 234 244 261 281 302 313 326 341 342 345 350 355 357 360 358 357 0 356 352 358 5
217 217 245 229 208 214 296 282 251 256 236 242 242 241 229 217 212 207 209 212 214 217 218 221 223 223 222 226 233 236 247 269 282 297 327 335 339 345 350 356 358 1 358 359 2 358 358 357 360
222 339 95 88 36 267 241 285 263 258 264 218 232 232 230 214 221 212 210 211 216 221 221 222 222 222 222 226 229 234 243 256 283 303 314 329 336 343 352 357 359 1 359 1 4 360 2 2 351
159 112 107 105 237 335 212 338 265 160 258 54 68 230 232 225 218 212 211 218 220 223 221 222 221 223 225 226 226 233 240 251 267 281 304 325 337 343 352 357 360 1 359 2 4 2 2 1 357
146 104 87 92 45 359 210 166 270 217 190 124 132 234 210 209 210 214 215 218 219 222 223 221 221 223 227 224 226 232 240 246 259 277 304 325 335 341 352 357 1 2 360 2 6 4 2 359 0
223 135 355 343 16 223 51 9 252 287 296 176 180 180 175 196 190 195 203 211 217 220 221 220 221 223 226 223 223 229 239 246 260 273 298 322 332 340 350 359 3 3 360 2 6 4 4 1 2
197 168 169 210 202 242 69 228 248 219 87 110 151 166 198 189 190 202 207 214 218 222 221 221 222 224 225 223 221 225 233 240 253 268 291 316 329 340 352 358 3 5 359 1 6 4 5 0 3
175 189 135 96 66 59 223 265 299 295 207 188 201 201 199 212 213 206 205 214 219 220 221 224 223 225 227 222 223 226 230 234 245 259 284 309 325 340 349 359 4 6 359 1 6 4 6 2 5
152 201 86 348 212 256 269 251 238 197 180 195 215 211 192 198 208 205 206 209 215 220 223 224 226 228 225 223 222 224 229 233 239 251 270 300 320 341 350 358 4 8 1 0 6 6 8 3 9
163 198 247 148 178 197 245 249 225 203 185 180 119 168 185 202 205 208 210 211 214 218 219 222 224 224 220 221 220 221 224 228 234 242 258 287 312 338 349 356 3 8 3 358 7 9 9 7 11
274 199 167 146 231 232 138 266 37 110 112 92 98 155 191 218 228 231 222 216 216 217 221 221 224 226 223 220 218 218 218 222 227 234 246 270 300 334 348 354 360 9 4 358 5 10 11 9 12
Height
1512 1513 1514 1515 1521 1511 1512 1513 1507 1516 1518 1524 1525 1528 1533 1536 1539 1547 1548 1548 1550 1551 1551 1550 1550 1550 1548 1547 1547 1546 1545 1544 1543 1542 1541 1539 1537 1535 1532 1529 1526 1522 1519 1515 1512 1507 1504 1499 1495
1512 1514 1514 1513 1520 1519 1509 1507 1513 1517 1521 1526 1530 1532 1533 1539 1540 1541 1545 1547 1548 1549 1549 1549 1549 1548 1548 1547 1547 1546 1544 1544 1543 1542 1541 1539 1537 1535 1532 1528 1525 1521 1517 1513 1508 1504 1499 1496 1492
1512 1513 1515 1511 1512 1516 1515 1509 1511 1520 1524 1527 1531 1533 1535 1539 1540 1541 1542 1544 1546 1547 1546 1547 1547 1547 1547 1548 1547 1545 1544 1544 1543 1542 1541 1539 1536 1533 1531 1527 1523 1519 1515 1510 1506 1501 1498 1494 1490
1512 1515 1514 1516 1511 1507 1509 1509 1513 1521 1527 1528 1529 1533 1536 1538 1540 1539 1541 1543 1544 1545 1545 1546 1547 1548 1548 1547 1546 1545 1544 1544 1543 1542 1540 1538 1535 1532 1529 1525 1521 1517 1512 1508 1503 1499 1493 1489 1484
1512 1511 1514 1512 1505 1506 1511 1510 1513 1521 1525 1527 1528 1531 1535 1538 1537 1538 1540 1542 1542 1543 1544 1545 1546 1547 1546 1546 1545 1545 1544 1543 1543 1541 1539 1537 1534 1531 1527 1523 1519 1514 1509 1505 1500 1495 1490 1485 1480
1512 1509 1514 1514 1501 1507 1511 1512 1515 1519 1522 1525 1528 1530 1533 1533 1535 1537 1539 1540 1541 1542 1542 1544 1545 1545 1544 1545 1545 1544 1543 1542 1541 1540 1538 1535 1532 1529 1525 1521 1516 1512 1508 1503 1497 1492 1487 1482 1476
1509 1509 1512 1507 1502 1509 1510 1512 1516 1517 1520 1523 1525 1527 1531 1531 1533 1535 1537 1538 1539 1540 1541 1543 1544 1543 1544 1545 1544 1543 1542 1542 1540 1538 1536 1534 1531 1528 1524 1519 1515 1511 1506 1501 1496 1490 1485 1478 1473
1508 1508 1509 1504 1506 1507 1507 1512 1514 1517 1519 1521 1524 1526 1527 1527 1530 1533 1535 1536 1538 1539 1541 1542 1541 1542 1543 1543 1542 1541 1541 1540 1538 1537 1535 1532 1529 1526 1522 1518 1513 1508 1503 1498 1493 1486 1480 1475 1469
1508 1511 1511 1503 1501 1504 1508 1512 1515 1515 1517 1521 1522 1523 1523 1524 1526 1530 1532 1534 1536 1537 1539 1539 1541 1541 1541 1541 1541 1540 1539 1538 1537 1535 1534 1531 1528 1524 1520 1516 1512 1507 1502 1496 1490 1484 1477 1472 1464
1507 1512 1505 1500 1497 1502 1508 1511 1513 1518 1518 1521 1521 1521 1523 1523 1524 1526 1528 1530 1533 1535 1537 1538 1539 1540 1540 1540 1539 1539 1538 1537 1536 1534 1532 1529 1526 1523 1519 1514 1509 1504 1499 1493 1488 1481 1474 1467 1460
1504 1507 1504 1503 1503 1505 1506 1511 1513 1516 1517 1513 1515 1518 1521 1521 1522 1524 1527 1528 1530 1533 1535 1536 1537 1538 1539 1539 1538 1537 1537 1536 1534 1533 1531 1528 1525 1521 1516 1512 1507 1502 1496 1490 1483 1476 1470 1464 1457
1505 1502 1504 1506 1507 1508 1508 1510 1510 1510 1510 1509 1511 1513 1517 1518 1518 1519 1522 1525 1528 1528 1530 1532 1535 1537 1537 1537 1537 1536 1536 1535 1533 1531 1529 1527 1523 1519 1514 1509 1504 1499 1493 1487 1480 1473 1467 1461 1455
1504 1503 1506 1508 1509 1509 1510 1509 1509 1506 1507 1507 1510 1509 1510 1512 1515 1517 1520 1523 1524 1525 1527 1530 1532 1534 1535 1535 1535 1534 1534 1532 1531 1529 1528 1525 1521 1517 1512 1507 1502 1497 1491 1485 1477 1471 1465 1458 1451
1503 1503 1505 1507 1508 1509 1510 1509 1509 1500 1502 1503 1507 1506 1507 1508 1510 1514 1517 1521 1522 1523 1525 1528 1530 1531 1532 1532 1532 1532 1531 1530 1529 1528 1526 1523 1520 1516 1511 1506 1501 1495 1490 1484 1477 1470 1463 1455 1449
1503 1504 1504 1504 1506 1507 1509 1508 1499 1496 1498 1500 1500 1502 1502 1504 1508 1509 1512 1515 1516 1520 1521 1523 1526 1528 1529 1530 1531 1530 1530 1529 1528 1527 1525 1522 1519 1515 1510 1505 1500 1494 1488 1482 1476 1468 1462 1454 1447
1503 1503 1504 1501 1503 1507 1509 1500 1490 1489 1493 1494 1495 1496 1498 1499 1501 1504 1507 1510 1512 1515 1516 1520 1522 1525 1526 1527 1528 1528 1528 1528 1527 1525 1523 1521 1518 1514 1510 1504 1499 1493 1487 1481 1475 1466 1458 1451 1444
1503 1506 1499 1502 1500 1504 1508 1497 1489 1488 1489 1490 1490 1490 1492 1494 1495 1498 1502 1504 1506 1509 1511 1515 1518 1520 1522 1524 1525 1526 1526 1526 1525 1524 1522 1520 1516 1513 1508 1503 1499 1492 1486 1480 1473 1466 1459 1450 1441
1499 1502 1493 1492 1501 1501 1504 1499 1488 1487 1486 1484 1485 1485 1485 1486 1488 1493 1497 1500 1503 1505 1507 1510 1512 1515 1518 1520 1522 1523 1524 1523 1523 1522 1521 1519 1516 1512 1507 1503 1498 1492 1486 1480 1472 1465 1460 1452 1443
1489 1493 1493 1495 1502 1502 1500 1492 1483 1479 1477 1475 1474 1477 1480 1481 1485 1488 1492 1495 1499 1501 1503 1505 1508 1511 1514 1516 1518 1519 1520 1520 1520 1520 1519 1517 1514 1511 1507 1502 1497 1491 1485 1479 1472 1464 1458 1452 1443
1490 1494 1496 1501 1501 1504 1496 1488 1476 1469 1464 1463 1466 1469 1472 1477 1479 1482 1486 1489 1491 1494 1498 1502 1505 1507 1510 1513 1515 1516 1517 1517 1517 1516 1516 1514 1513 1509 1505 1501 1495 1490 1485 1480 1472 1465 1458 1453 1448
1492 1495 1492 1496 1501 1500 1501 1489 1471 1455 1453 1455 1456 1459 1461 1466 1470 1473 1477 1481 1486 1488 1492 1496 1499 1502 1506 1508 1511 1513 1515 1515 1516 1515 1515 1513 1511 1508 1504 1500 1495 1490 1485 1480 1472 1467 1460 1452 1450
1495 1491 1494 1498 1501 1511 1498 1511 1464 1453 1451 1451 1451 1453 1456 1461 1466 1468 1471 1475 1478 1484 1489 1491 1494 1497 1501 1503 1507 1510 1512 1513 1515 1515 1514 1512 1509 1507 1503 1499 1495 1490 1485 1480 1473 1468 1463 1456 1452
1493 1494 1496 1500 1502 1501 1502 1514 1477 1451 1452 1449 1452 1452 1453 1456 1460 1462 1466 1471 1476 1480 1483 1488 1492 1495 1498 1501 1504 1506 1508 1510 1511 1512 1512 1511 1508 1506 1502 1498 1495 1490 1486 1480 1474 1469 1465 1460 1456
1493 1497 1498 1499 1506 1530 1497 1500 1478 1457 1448 1450 1451 1452 1452 1453 1456 1460 1465 1469 1471 1476 1482 1486 1489 1492 1495 1500 1502 1505 1506 1508 1509 1509 1510 1508 1507 1505 1501 1498 1495 1490 1486 1480 1474 1470 1466 1462 1458
1492 1497 1524 1525 1536 1525 1499 1503 1477 1452 1448 1446 1449 1450 1451 1452 1453 1457 1460 1463 1469 1472 1475 1479 1484 1487 1491 1496 1499 1502 1504 1506 1507 1507 1507 1507 1505 1503 1501 1497 1493 1490 1486 1481 1475 1471 1466 1462 1458
1495 1493 1508 1515 1515 1504 1508 1507 1466 1444 1443 1442 1445 1447 1449 1451 1453 1456 1458 1461 1465 1467 1471 1476 1480 1483 1487 1493 1495 1497 1501 1503 1505 1506 1505 1505 1504 1502 1499 1496 1492 1488 1486 1481 1475 1471 1467 1463 1459
1492 1501 1489 1515 1536 1521 1490 1469 1447 1439 1440 1441 1443 1444 1447 1449 1450 1453 1456 1459 1461 1465 1468 1471 1474 1479 1485 1489 1494 1497 1498 1500 1502 1504 1504 1502 1502 1500 1498 1495 1491 1488 1485 1481 1476 1471 1467 1462 1459
1486 1485 1503 1511 1512 1516 1485 1467 1464 1442 1440 1440 1442 1442 1445 1448 1449 1450 1452 1455 1458 1462 1466 1469 1470 1474 1480 1485 1488 1492 1496 1499 1500 1501 1502 1501 1500 1498 1497 1494 1491 1487 1484 1481 1475 1471 1467 1462 1460
1493 1494 1491 1489 1491 1493 1493 1476 1439 1439 1438 1439 1440 1441 1444 1445 1447 1449 1451 1453 1457 1460 1460 1464 1467 1468 1472 1477 1482 1487 1491 1495 1496 1498 1499 1499 1498 1497 1496 1493 1491 1487 1483 1480 1475 1471 1468 1463 1460
1475 1474 1479 1491 1490 1493 1494 1476 1436 1437 1437 1439 1441 1443 1443 1443 1445 1448 1449 1451 1452 1455 1459 1459 1462 1466 1468 1471 1476 1480 1484 1489 1492 1494 1496 1497 1497 1495 1493 1493 1490 1486 1483 1480 1476 1471 1468 1464 1461